Current Weather Conditions: station 62114

sailwx.info

See reports from other nearby stations

no recent reports received from weather station ID 62114

Tides Pressure Air temp Water temp Dewpoint Dewpoint depression Visibility Wind speed Wind direction Waves Ship positions
date/time (UTC)wind fromknots sea level pressurealtimeterstation pressurevisibilityair tempwater tempwave heightnotes
2014-Sep-16 03:00 090 24 14.1
2014-Sep-16 02:00 090 25 13.8
2014-Sep-16 01:00 090 24 14.1
2014-Sep-16 00:00 090 22 14.5
2014-Sep-15 23:00 100 20 14.3
2014-Sep-15 22:00 090 23 14.2
2014-Sep-15 20:00 090 20 14.8
2014-Sep-15 19:00 090 19 15.0
2014-Sep-15 18:00 080 19 14.7
2014-Sep-15 17:00 080 18 14.7
2014-Sep-15 16:00 080 19 14.8
2014-Sep-15 15:00 090 19 15.1
2014-Sep-15 13:00 090 17 15.2
2014-Sep-15 12:00 080 18 14.8
2014-Sep-15 11:00 090 20 14.8
2014-Sep-15 10:00 080 18 14.4
2014-Sep-15 09:00 070 17 14.0
2014-Sep-15 08:00 050 16 13.8
2014-Sep-15 07:00 050 14 13.4
2014-Sep-15 06:00 050 13 13.1
2014-Sep-15 05:00 060 14 13.0
2014-Sep-15 04:00 050 13 13.0
2014-Sep-15 03:00 070 12 13.0
2014-Sep-15 02:00 060 12 13.1
2014-Sep-15 01:00 070 12 13.2
2014-Sep-15 00:00 080 12 13.3
2014-Sep-14 23:00 070 10 13.5
2014-Sep-14 22:00 080 10 13.8
2014-Sep-14 21:00 090 9 13.9
2014-Sep-14 20:00 090 10 13.6
2014-Sep-14 19:00 090 11 13.8
2014-Sep-14 18:00 070 10 13.6
2014-Sep-14 17:00 080 9 13.9
2014-Sep-14 16:00 080 9 14.1
2014-Sep-14 15:00 090 10 14.2
2014-Sep-14 14:00 090 9 14.0
2014-Sep-14 13:00 090 9 14.4
2014-Sep-14 12:00 100 9 14.5
2014-Sep-14 11:00 100 8 14.2
2014-Sep-14 10:00 110 9 13.8
2014-Sep-14 09:00 110 10 13.7
2014-Sep-14 08:00 100 10 13.6
2014-Sep-14 07:00 100 9 13.7
2014-Sep-14 06:00 090 10 13.7
2014-Sep-14 05:00 090 8 13.7